This is the latest recevied weather packets stored in our database for station/object K1BES. If no packets are shown the sender has not sent any weather packets the latest 10 day(s).
| Time | Temp. | Humidity | Pressure | Rain* | Wind** | Luminosity | Snow |
|---|---|---|---|---|---|---|---|
| 1778024416 | 25° C | 82% | 1016.4 hPa | 0 mm | - | 15 W/m² | - |
| 1778024114 | 25° C | 81% | 1016.4 hPa | 0 mm | - | 20 W/m² | - |
| 1778023811 | 25° C | 81% | 1016.4 hPa | 0 mm | - | 25 W/m² | - |
| 1778023509 | 25° C | 81% | 1016.5 hPa | 0 mm | - | 28 W/m² | - |
| 1778023206 | 25° C | 80% | 1016.6 hPa | 0 mm | - | 32 W/m² | - |
| 1778022903 | 25.56° C | 79% | 1016.4 hPa | 0 mm | - | 37 W/m² | - |
| 1778022602 | 25.56° C | 79% | 1016.3 hPa | 0 mm | - | 45 W/m² | - |
| 1778022299 | 25.56° C | 78% | 1016.4 hPa | 0 mm | - | 55 W/m² | - |
| 1778021995 | 25.56° C | 79% | 1016.4 hPa | 0 mm | - | 64 W/m² | - |
| 1778021692 | 25.56° C | 78% | 1016.3 hPa | 0 mm | - | 67 W/m² | - |
| 1778021388 | 25.56° C | 78% | 1016.3 hPa | 0 mm | - | 65 W/m² | - |
| 1778021085 | 25.56° C | 79% | 1016 hPa | 0 mm | - | 64 W/m² | - |
| 1778020782 | 25.56° C | 79% | 1016 hPa | 0 mm | - | 66 W/m² | - |
| 1778020479 | 25.56° C | 78% | 1016.2 hPa | 0 mm | - | 89 W/m² | - |
| 1778020175 | 25.56° C | 78% | 1016.2 hPa | 0 mm | - | 102 W/m² | - |
| 1778019872 | 25.56° C | 78% | 1016.3 hPa | 0 mm | - | 112 W/m² | - |
| 1778019568 | 26.11° C | 78% | 1016.2 hPa | 0 mm | - | 127 W/m² | - |
| 1778019265 | 26.11° C | 78% | 1016.3 hPa | 0 mm | - | 127 W/m² | - |
| 1778018962 | 26.11° C | 76% | 1016.1 hPa | 0 mm | - | 115 W/m² | - |
| 1778018659 | 26.11° C | 77% | 1016 hPa | 0 mm | - | 111 W/m² | - |
| 1778018357 | 26.11° C | 76% | 1016.2 hPa | 0 mm | - | 104 W/m² | - |
| 1778018055 | 26.11° C | 75% | 1016 hPa | 0 mm | - | 91 W/m² | - |
| 1778017752 | 26.67° C | 74% | 1016.1 hPa | 0 mm | - | 81 W/m² | - |
| 1778017450 | 26.67° C | 74% | 1016.1 hPa | 0 mm | - | 75 W/m² | - |
| 1778017147 | 26.67° C | 74% | 1016.1 hPa | 0 mm | - | 71 W/m² | - |
* Rain latest hour (hover to see other rain measurements)
** Current wind speed in m/s (hover to see current wind gust speed)